ONEWEB-0087 (45451 NORAD) Tracking and Keplerian Element Data

This shows tracking and keplerian element data for the satellite.

Feedback or suggestion? Click here.




ElementValue
Catalog45451
NameONEWEB-0087
Epoch Orbit1625
Epoch Day190.25001157
Epoch Year2020
RAAN103.4791
Inclination87.5701
Eccentricity0.0023746
Argument of Perigee271.3098
Mean Anonmoly98.8187
Mean Motion14.89577663
Decay Rate0.00013073
L11 45451U 20020AD 20190.25001157 .00013073 00000-0 13597-2 0 9997
L22 45451 87.5701 103.4791 0023746 271.3098 98.8187 14.89577663 16257

Live tracking and technical data element details for ONEWEB-0087 (NORAD 45451). ONEWEB-0087 can be tracked NOW for your location showing map with azimuth and elevation plus other details from your city location.

Track the satellite on the map from your city or location and see movement details for azimuth, elevation, latitude, longitude, range, height, and movement on the map or in text.







IsCatalogInMostPopularTable: catalog: 45451, numindb: 24
Update: records affected: 1



GetName: 45451 ONEWEB-0087

Hit Count: updated at: Fri, 10 Jul 2020 02:24:40 GMT